Location: Wellington
(41.3000°S, 174.8000°E)
Time: 19:20:42
(UTC+12:00)

ISS - Visible Passes

Search period start: 13 April 2024 00:00
Search period end: 23 April 2024 00:00
Orbit: 413 x 419 km, 51.6° (Epoch: 13 April)

Date Brightness Start Highest point End Pass type
(mag) Time Alt. Az. Time Alt. Az. Time Alt. Az.
13 Apr -1.7 18:46:26 10° NNE 18:48:07 13° NE 18:48:31 13° ENE visible
13 Apr -0.7 20:21:01 10° WNW 20:21:28 13° WNW 20:21:28 13° WNW visible
14 Apr -3.4 19:32:33 10° NW 19:35:28 55° N 19:35:28 55° N visible
15 Apr -3.0 18:44:18 10° NNW 18:47:27 35° NE 18:49:19 20° E visible
15 Apr -0.9 20:21:03 10° W 20:22:14 18° W 20:22:14 18° W visible
16 Apr -3.1 19:32:11 10° WNW 19:35:31 49° SSW 19:35:54 46° S visible
17 Apr -3.7 18:43:27 10° WNW 18:46:52 82° SW 18:49:28 17° SE visible
17 Apr -0.7 20:21:24 10° WSW 20:22:22 15° SW 20:22:22 15° SW visible
18 Apr -2.0 19:32:16 10° W 19:35:12 26° SSW 19:35:48 24° S visible
19 Apr -2.4 18:43:12 10° W 18:46:23 35° SSW 18:49:08 13° SE visible
19 Apr -0.4 20:21:44 10° SW 20:22:01 11° SW 20:22:01 11° SW visible
20 Apr -1.5 19:32:32 10° WSW 19:34:56 17° SSW 19:35:17 17° S visible
21 Apr -1.7 18:43:17 10° WSW 18:45:59 21° SSW 18:48:28 11° SSE visible
22 Apr -1.2 19:32:36 10° SW 19:34:29 15° S 19:34:29 15° S visible
